www.pogodaiklimat.ru

Погода и климат >> Архив погоды >> Австралия >> Thargomindah Airport


ПОГОДА в Thargomindah Airport

  • Прогноз погоды в Thargomindah Airport
  • Монитор погоды в Thargomindah Airport
  • Климат города

АРХИВ ПОГОДЫ в Thargomindah Airport

Время (UTC), дата Ветер
(напр.,м/с)
 
Видим.   Явления Облачность Т
(С)
Тd
(С)
f
(%)
Тe
(С)
Тes
(С)
Комфортность P
(гПа)
Po
(гПа)
Тmin
(С)
Tmax
(С)
R
(мм)
S
(см)
23 18.03 В 5 н/о {туман} н/о +23.1 +18.4 75 +29 +29 очень
душно
1012.8 997.9
00 19.03 ЮВ 4 н/о н/о +23.0 +19.2 79 +29 +29 очень
душно
1012.8 997.8
02 19.03 ЮВ 4 н/о {туман} н/о +25.0 +18.9 69 +30 +30 душно 1011.6 996.7 +21.7
03 19.03 Ю 4 н/о н/о +25.7 +19.3 68 +31 +31 очень
душно
1011.0 996.0
05 19.03 Ю 5 20 км {дождь} 10/10 1500 м
[Cu Sc]
+27.2 +18.2 58 +32 +32 очень
душно
1009.5 994.6
06 19.03 Ю 4 н/о н/о +29.0 +16.2 46 +32 +32 душно 1008.8 993.8
08 19.03 ЮЗ 4 н/о н/о +28.7 +15.2 44 +31 +31 жарко 1008.6 993.8
09 19.03 Ю 3 н/о н/о +28.1 +15.7 47 +31 +31 душно 1009.3 994.3
11 19.03 ЮВ 3 н/о н/о +25.2 +18.9 68 +30 +30 душно 1010.8 996.0
12 19.03 В 4 н/о н/о +25.0 +17.2 62 +29 +29 душно 1011.1 996.1
14 19.03 В 4 н/о н/о +24.5 +17.7 66 +29 +29 душно 1009.7 994.9 +30.3
15 19.03 В 4 н/о н/о +24.6 +18.1 67 +29 +29 душно 1009.6 994.6
17 19.03 В 3 н/о н/о +25.0 +17.7 64 +29 +29 душно 1008.8 994.0
18 19.03 В 4 н/о н/о +25.1 +17.6 63 +29 +29 душно 1008.6 993.6
20 19.03 В 3 н/о н/о +25.0 +16.4 59 +28 +28 жарко 1008.8 994.0
21 19.03 В 3 н/о н/о +24.6 +17.1 63 +28 +28 душно 1009.3 994.3
23 19.03 С 5 н/о н/о +29.2 +16.0 45 +32 +32 душно 1009.8 995.0
00 20.03 С 6 н/о н/о +30.5 +15.8 41 +33 +33 душно 1010.0 995.0
02 20.03 З 3 н/о н/о +32.8 +15.3 35 +35 +35 душно 1008.6 993.8 +23.0
03 20.03 С 4 н/о н/о +33.4 +14.0 31 +35 +35 душно 1008.0 993.0
05 20.03 СЗ 6 н/о н/о +35.7 +13.2 26 +36 +36 очень
жарко
1006.1 991.3
06 20.03 З 5 н/о н/о +35.1 +13.8 28 +36 +36 очень
жарко
1005.7 990.8
08 20.03 ЮЗ 4 н/о н/о +34.3 +13.2 28 +35 +35 очень
жарко
1006.4 991.6
09 20.03 ЮЗ 3 н/о н/о +32.9 +13.0 30 +34 +34 очень
жарко
1007.5 992.5
11 20.03 ЮВ 4 н/о н/о +29.8 +18.9 52 +35 +35 очень
душно
1008.6 993.8
12 20.03 В 5 н/о н/о +29.2 +19.2 55 +35 +35 очень
душно
1009.0 994.0
14 20.03 СВ 3 н/о н/о +27.8 +18.5 57 +33 +33 очень
душно
1008.6 993.8 +36.8
15 20.03 В 2 н/о н/о +27.1 +18.7 60 +32 +32 очень
душно
1008.7 993.7
17 20.03 СВ 3 н/о н/о +26.7 +18.3 60 +31 +31 душно 1007.9 993.1
18 20.03 СВ 3 н/о н/о +27.0 +18.0 58 +32 +32 очень
душно
1007.9 992.9
20 20.03 С 4 н/о н/о +27.2 +17.9 57 +32 +32 очень
душно
1008.7 993.9
21 20.03 С 4 н/о н/о +27.4 +18.1 57 +32 +32 очень
душно
1009.5 994.5
23 20.03 С 8 н/о н/о +31.1 +17.4 44 +35 +35 очень
душно
1010.4 995.6
00 21.03 СЗ 7 н/о н/о +33.2 +16.1 36 +36 +36 очень
душно
1010.6 995.6
02 21.03 СЗ 5 н/о н/о +35.6 +13.7 27 +36 +36 очень
жарко
1009.9 995.1 +26.7
03 21.03 СЗ 5 н/о н/о +36.8 +11.6 22 +36 +36 очень
жарко
1009.4 994.4
05 21.03 З 5 н/о н/о +37.8 +9.4 18 +36 +36 очень
жарко
1007.6 992.8
06 21.03 ЮЗ 6 н/о н/о +37.8 +7.7 16 +36 +36 очень
жарко
1007.1 992.2
08 21.03 ЮЗ 5 н/о н/о +36.7 +9.3 19 +35 +35 очень
жарко
1007.4 992.6
09 21.03 Ю 3 н/о н/о +35.2 +9.6 21 +34 +34 очень
жарко
1008.1 993.1
11 21.03 Ю 3 н/о н/о +32.1 +9.6 25 +31 +31 жарко 1009.4 994.6
12 21.03 ЮВ 3 н/о н/о +31.5 +10.2 27 +31 +31 жарко 1009.9 994.9
14 21.03 С 3 н/о н/о +29.7 +16.8 46 +33 +33 душно 1009.9 995.1 +39.0
15 21.03 СВ 5 н/о н/о +29.1 +17.3 49 +33 +33 очень
душно
1010.1 995.1
17 21.03 СВ 4 н/о н/о +27.6 +17.2 53 +32 +32 очень
душно
1009.8 995.0
18 21.03 СВ 5 н/о н/о +27.3 +16.9 53 +31 +31 душно 1010.0 995.0
20 21.03 С 3 н/о н/о +26.0 +17.1 58 +30 +30 душно 1010.7 995.9
21 21.03 С 3 н/о н/о +25.8 +16.9 58 +30 +30 душно 1011.4 996.4
23 21.03 С 5 н/о н/о +29.8 +17.3 47 +34 +34 очень
душно
1012.5 997.6
00 22.03 СЗ 4 н/о н/о +31.9 +17.0 41 +35 +35 очень
душно
1012.5 997.5
02 22.03 СЗ 2 н/о н/о +36.2 +15.3 29 +38 +38 очень
душно
1010.8 996.0 +25.6
03 22.03 З 2 н/о н/о +37.7 +11.6 21 +37 +37 очень
жарко
1010.0 995.0
05 22.03 ЮЗ 4 н/о н/о +38.4 +7.2 15 +36 +36 очень
жарко
1008.3 993.5
06 22.03 Ю 4 н/о н/о +38.7 +7.4 15 +36 +36 очень
жарко
1007.8 992.8
08 22.03 ЮВ 2 н/о н/о +37.5 +6.5 15 +35 +35 очень
жарко
1007.4 992.6
09 22.03 В 3 н/о н/о +35.9 +10.2 21 +35 +35 очень
жарко
1007.9 992.9
11 22.03 СВ 3 н/о н/о +33.0 +9.7 24 +32 +32 жарко 1009.1 994.3
12 22.03 В 3 н/о н/о +33.2 +12.2 28 +33 +33 жарко 1010.1 995.1
14 22.03 СВ 3 н/о н/о +31.0 +13.3 34 +32 +32 жарко 1009.8 995.0 +39.8
15 22.03 З 3 н/о н/о +30.0 +12.9 35 +31 +31 жарко 1010.2 995.2
17 22.03 С 3 н/о н/о +30.1 +13.8 37 +32 +32 жарко 1009.4 994.6
18 22.03 СВ 3 н/о н/о +28.8 +14.2 41 +31 +31 жарко 1009.7 994.7
20 22.03 С 3 н/о н/о +27.3 +14.7 46 +30 +30 душно 1010.8 996.0
21 22.03 СВ 3 н/о н/о +27.4 +15.1 47 +30 +30 жарко 1011.4 996.4
23 22.03 С 4 н/о н/о +32.0 +15.9 38 +35 +35 очень
душно
1012.5 997.6
00 23.03 С 3 н/о н/о +33.4 +15.4 34 +35 +35 душно 1012.8 997.8
03 23.03 СЗ 2 н/о н/о +37.9 +11.8 21 +37 +37 очень
жарко
1010.3 995.3
05 23.03 В 3 н/о н/о +39.3 +8.9 16 +37 +37 очень
жарко
1008.6 993.8
06 23.03 В 3 н/о н/о +38.5 +8.2 16 +36 +36 очень
жарко
1008.6 993.6
08 23.03 В 4 н/о н/о +37.4 +9.1 18 +36 +36 очень
жарко
1008.1 993.3
09 23.03 В 3 н/о н/о +35.6 +9.2 20 +34 +34 очень
жарко
1008.6 993.6
11 23.03 В 3 н/о н/о +33.5 +10.2 24 +33 +33 жарко 1009.9 995.1
12 23.03 СВ 4 н/о н/о +33.0 +10.4 25 +32 +32 жарко 1010.3 995.3
14 23.03 СВ 4 н/о н/о +31.7 +13.0 32 +33 +33 жарко 1010.2 995.4 +39.4
15 23.03 СВ 4 н/о н/о +30.9 +13.2 34 +32 +32 жарко 1010.0 995.0
17 23.03 В 3 н/о н/о +29.1 +14.9 42 +32 +32 душно 1009.1 994.3
18 23.03 В 3 н/о н/о +28.3 +15.6 46 +31 +31 душно 1009.5 994.5
20 23.03 СВ 2 н/о н/о +27.1 +16.4 52 +31 +31 душно 1010.3 995.5
21 23.03 штиль 0 н/о н/о +26.8 +15.5 50 +30 +30 душно 1011.2 996.2
23 23.03 С 5 н/о н/о +32.2 +17.3 41 +36 +36 очень
душно
1012.0 997.1
00 24.03 СЗ 4 н/о н/о +34.0 +16.8 36 +37 +37 очень
душно
1012.2 997.2
02 24.03 ЮВ 3 н/о н/о +37.5 +14.1 25 +38 +38 очень
жарко
1010.7 995.9 +26.4
03 24.03 В 2 н/о н/о +38.0 +11.9 21 +37 +37 очень
жарко
1009.9 994.9
05 24.03 ЮВ 4 н/о н/о +38.6 +8.3 16 +37 +37 очень
жарко
1007.9 993.1
06 24.03 ЮВ 4 н/о н/о +38.6 +8.3 16 +37 +37 очень
жарко
1008.0 993.0
08 24.03 В 4 н/о н/о +37.9 +9.5 18 +36 +36 очень
жарко
1008.0 993.2
09 24.03 В 3 н/о н/о +36.8 +10.2 20 +36 +36 очень
жарко
1008.5 993.5
11 24.03 В 5 н/о н/о +35.1 +10.2 22 +34 +34 очень
жарко
1009.4 994.6
12 24.03 В 4 н/о н/о +34.3 +10.8 24 +34 +34 очень
жарко
1009.7 994.7
14 24.03 В 4 н/о н/о +33.0 +10.4 25 +32 +32 жарко 1009.3 994.5 +40.0
15 24.03 СВ 4 н/о н/о +32.4 +12.1 29 +33 +33 жарко 1009.2 994.2
17 24.03 СВ 4 н/о н/о +31.2 +13.5 34 +32 +32 жарко 1008.8 994.0
18 24.03 СВ 4 н/о н/о +30.8 +14.8 38 +33 +33 душно 1009.2 994.2
20 24.03 С 5 н/о н/о +30.0 +15.7 42 +33 +33 душно 1009.7 994.9
21 24.03 С 4 н/о н/о +30.1 +15.8 42 +33 +33 душно 1010.7 995.7
23 24.03 С 6 н/о н/о +32.4 +16.7 39 +36 +36 очень
душно
1011.9 997.0
00 25.03 С 6 н/о н/о +34.6 +16.4 34 +37 +37 очень
душно
1012.1 997.1
02 25.03 С 3 н/о н/о +37.0 +14.3 26 +38 +38 душно 1011.1 996.3 +29.8
03 25.03 В 3 н/о н/о +38.1 +13.3 23 +38 +38 очень
жарко
1010.1 995.1
05 25.03 ЮВ 4 н/о н/о +38.5 +11.5 20 +38 +38 очень
жарко
1008.4 993.6
06 25.03 Ю 2 н/о н/о +38.5 +11.5 20 +38 +38 очень
жарко
1008.1 993.1
08 25.03 В 2 н/о н/о +37.5 +11.5 21 +37 +37 очень
жарко
1008.3 993.5
09 25.03 В 3 н/о н/о +36.2 +11.1 22 +35 +35 очень
жарко
1008.9 993.9
11 25.03 В 2 н/о н/о +33.3 +11.2 26 +33 +33 жарко 1010.2 995.4
12 25.03 СВ 3 н/о н/о +32.7 +10.7 26 +32 +32 жарко 1010.7 995.7
14 25.03 СВ 3 н/о н/о +30.6 +11.1 30 +31 +31 жарко 1010.0 995.2 +39.5
15 25.03 С 3 н/о н/о +30.8 +11.2 30 +31 +31 жарко 1009.8 994.8
17 25.03 С 5 н/о н/о +31.2 +12.5 32 +32 +32 жарко 1008.8 994.0
18 25.03 С 5 н/о н/о +30.6 +12.5 33 +31 +31 жарко 1009.2 994.2
20 25.03 СВ 2 н/о н/о +27.8 +13.0 40 +29 +29 жарко 1010.7 995.9
21 25.03 ЮВ 1 н/о н/о +27.1 +12.7 41 +29 +29 жарко 1012.2 997.2

 

Местоположение метеостанции Thargomindah Airport (Квинсленд, Австралия): широта -27.98 долгота 143.81 высота над уровнем моря 132 м.

В архиве по умолчанию представлена погода в Thargomindah Airport за последнюю неделю. Архивные данные за месяц целиком и за предыдущие месяцы, начиная с января 2011 года, Вы можете получить, выбрав интересующий диапазон дат из раскрывающегося списка и нажав кнопку "Ввод!".

Внимание! Время в таблицах - всемирное. Для получения местного времени необходимо прибавить поправку, которая в Thargomindah Airport равна 10 ч.

Смотрите также архив погоды в соседних городах и на ближайших метеорологических станциях:

Погода в Ballera Gas Field (Квинсленд, Австралия) (206 км)
Погода в Tibooburra Airport (Новый Южный Уэльс, Австралия) (237 км)
Погода в Charleville Aero (Квинсленд, Австралия) (299 км)
Погода в Bourke Airport Aws (Новый Южный Уэльс, Австралия) (309 км)
Погода в White Cliffs Aws (Новый Южный Уэльс, Австралия) (327 км)
Погода в Moomba Airport (Южная Австралия, Австралия) (355 км)
Погода в Wilcannia Aerodrome (Новый Южный Уэльс, Австралия) (396 км)
Погода в Fowlers Gap Aws (Новый Южный Уэльс, Австралия) (401 км)
Погода в Blackall Airport (Квинсленд, Австралия) (428 км)
Погода в Cobar Mo (Новый Южный Уэльс, Австралия) (435 км)

Пояснения к столбцам:

Ветер - указаны скорость ветра в м/с - средняя за 10 мин, порывы в срок и между сроками (в фигурных скобках) и направление, откуда дует ветер: С - северный, СВ - северо-восточный, В - восточный, ЮВ - юго-восточный, Ю - южный, ЮЗ - юго-западный, З - западный, СЗ - северо-западный.
Видимость - горизонтальная дальность видимости в метрах или километрах. При видимости от 1 до 10 км при отсутствии осадков обычно наблюдается дымка, при ухудшении видимости до 1 км и менее - туман. В сухую погоду видимость может ухудшаться дымом, пылью или мглою.
Явления - указаны атмосферные явления, наблюдавшиеся в срок или в последний час перед сроком; фигурными скобками обозначены явления, наблюдавшиеся между сроками (за 1-3 часа до срока); квадратными скобками обозначены град или гололедные отложения с указанием их диаметра в мм.
Облачность - указаны через наклонную черту общая и нижняя облачность в баллах и высота нижней границы облаков в метрах; квадратными скобками обозначены формы облаков: Ci - перистые, Cs - перисто-слоистые, Cc - перисто-кучевые, Ac - высококучевые, As - высокослоистые, Sc - слоисто-кучевые, Ns - слоисто-дождевые, Cu - кучевые, Cb - кучево-дождевые. Подробнее классификацию облаков см. в Атласе облаков (PDF).
T - Температура воздуха - температура, измеренная на высоте 2 м над землей.
Td - Температура точки росы - температура, при понижении до которой содержащийся в воздухе водяной пар достигнет насыщения.
f - Относительная влажность воздуха - влажноcть воздуха, измеренная на высоте 2 м над землей.
Te - Эффективная температура - температура, которую ощущает одетый по сезону человек в тени. Характеристика душности погоды. При расчете учитывается влияние влажности воздуха и скорости ветра на теплоощущения человека.
Tes - Эффективная температура на солнце - температура, которую ощущает человек, с поправкой на солнечный нагрев. Характеристика знойности погоды. Зависит от высоты солнца над горизонтом, облачности и скорости ветра. Ночью, в пасмурную погоду, а также при ветре 12 м/с и более поправка равна нулю.
P - Атмосферное давление - приведенное к уровню моря атмосферное давление.
Po - Атмосферное давление - измеренное на уровне метеостанции атмосферное давление.
Tmin - Минимальная температура - минимум температуры воздуха на высоте 2 м над землей.
Tmax - Максимальная температура - максимум температуры воздуха на высоте 2 м над землей.
R - Количество осадков - Количество выпавших осадков, мм. При наведении курсора мыши на число - период времени, за который выпало указанное количество осадков.
S - Снежный покров - Высота снежного покрова, см. При наведении курсора мыши на число - состояние снежного покрова и степень покрытия местности в баллах.